Weather History for Chariton, IA

Change the Weather History Date:

Monday, September 23, 2013

  Actual Average Record
Temperature  
Mean Temperature 63 °F -  
Max Temperature 75 °F 72 °F 86 °F (1999)
Min Temperature 51 °F 45 °F 29 °F (1983)
Degree Days  
Heating Degree Days 2    
Growing Degree Days 13 (Base 50)    
Moisture  
Dew Point 50 °F    
Average Humidity 66    
Maximum Humidity 88    
Minimum Humidity 38    
Precipitation  
Precipitation 0.00 in - - ()
Sea Level Pressure  
Sea Level Pressure 29.92 in    
Wind  
Wind Speed 10 mph (SE)    
Max Wind Speed 20 mph    
Max Gust Speed 26 mph    
Visibility 10 miles    
Events Rain    
Averages and records for this station are not official NWS values.
T = Trace of Precipitation, MM = Missing Value Source: NWS Daily Summary

Daily Weather History Graph

Daily Weather History Graph

Search for Another Location

Airport:

Trip Planner

Search our weather history database for the weather conditions in past years. The results will help you decide how hot, cold, wet, or windy it might be!

Date:

Astronomy

Sep. 23, 2013 Rise Set
Actual Time 7:02 AM CDT 7:08 PM CDT
Civil Twilight 6:34 AM CDT 7:35 PM CDT
Nautical Twilight 6:02 AM CDT 8:07 PM CDT
Astronomical Twilight 5:29 AM CDT 8:40 PM CDT
Moon 9:38 PM CDT (9/23) 11:24 AM CDT (9/23)
Length of Visible Light 13h 01m
Length of Day
12h 06m
Waning Gibbous, 81% of the Moon is Illuminated
Sep 23
Waning Gibbous
Sep 26
Last Quarter
Oct 4
New
Oct 11
First Quarter
Oct 18
Full

Hourly Weather History & Observations

Time (CDT) Temp. Dew Point Humidity Pressure Visibility Wind Dir Wind Speed Gust Speed Precip Events Conditions
12:15 AM 55.4 °F 50.0 °F 82% 29.94 in 10.0 mi SE 8.1 mph - N/A   Clear
12:35 AM 55.4 °F 50.0 °F 82% 29.94 in 10.0 mi SE 8.1 mph - N/A   Clear
12:55 AM 53.6 °F 48.2 °F 82% 29.94 in 10.0 mi SSE 6.9 mph - N/A   Clear
1:15 AM 53.6 °F 48.2 °F 82% 29.94 in 10.0 mi SE 6.9 mph - N/A   Clear
1:35 AM 53.6 °F 48.2 °F 82% 29.94 in 10.0 mi SE 8.1 mph - N/A   Clear
1:55 AM 53.6 °F 48.2 °F 82% 29.94 in 10.0 mi SE 6.9 mph - N/A   Clear
2:15 AM 53.6 °F 48.2 °F 82% 29.94 in 10.0 mi SE 8.1 mph - N/A   Clear
2:35 AM 53.6 °F 48.2 °F 82% 29.94 in 10.0 mi SE 6.9 mph - N/A   Clear
2:55 AM 51.8 °F 48.2 °F 88% 29.93 in 10.0 mi SE 6.9 mph - N/A   Clear
3:15 AM 51.8 °F 48.2 °F 88% 29.93 in 10.0 mi SE 6.9 mph - N/A   Clear
3:35 AM 51.8 °F 48.2 °F 88% 29.93 in 10.0 mi SE 6.9 mph - N/A   Clear
3:55 AM 51.8 °F 48.2 °F 88% 29.93 in 10.0 mi SE 6.9 mph - N/A   Clear
4:15 AM 51.8 °F 48.2 °F 88% 29.93 in 10.0 mi SE 6.9 mph - N/A   Clear
4:35 AM 51.8 °F 48.2 °F 88% 29.93 in 10.0 mi SE 8.1 mph - N/A   Clear
4:55 AM 51.8 °F 48.2 °F 88% 29.93 in 10.0 mi SE 6.9 mph - N/A   Clear
5:15 AM 51.8 °F 48.2 °F 88% 29.94 in 10.0 mi SSE 6.9 mph - N/A   Clear
5:35 AM 51.8 °F 48.2 °F 88% 29.94 in 10.0 mi SE 6.9 mph - N/A   Clear
5:55 AM 51.8 °F 48.2 °F 88% 29.94 in 10.0 mi SE 6.9 mph - N/A   Clear
6:15 AM 51.8 °F 48.2 °F 88% 29.95 in 10.0 mi SE 8.1 mph - N/A   Clear
6:35 AM 51.8 °F 48.2 °F 88% 29.94 in 10.0 mi SE 10.4 mph - N/A   Clear
6:55 AM 51.8 °F 48.2 °F 88% 29.94 in 10.0 mi SE 11.5 mph - N/A   Clear
7:15 AM 51.8 °F 48.2 °F 88% 29.95 in 10.0 mi SE 9.2 mph - N/A   Clear
7:35 AM 53.6 °F 50.0 °F 88% 29.95 in 10.0 mi SE 10.4 mph - N/A   Clear
7:55 AM 53.6 °F 50.0 °F 88% 29.95 in 10.0 mi SE 9.2 mph - N/A   Clear
8:15 AM 55.4 °F 50.0 °F 82% 29.95 in 10.0 mi SSE 10.4 mph - N/A   Clear
8:35 AM 57.2 °F 50.0 °F 77% 29.95 in 10.0 mi SSE 11.5 mph - N/A   Clear
8:55 AM 59.0 °F 50.0 °F 72% 29.95 in 10.0 mi SSE 11.5 mph - N/A   Clear
9:15 AM 59.0 °F 51.8 °F 77% 29.96 in 10.0 mi SSE 10.4 mph 17.3 mph N/A   Clear
9:35 AM 60.8 °F 51.8 °F 72% 29.97 in 10.0 mi South 11.5 mph 17.3 mph N/A   Clear
9:55 AM 62.6 °F 51.8 °F 68% 29.98 in 10.0 mi South 8.1 mph 15.0 mph N/A   Clear
10:15 AM 66.2 °F 51.8 °F 60% 29.98 in 10.0 mi South 11.5 mph 17.3 mph N/A   Clear
10:35 AM 68.0 °F 51.8 °F 56% 29.98 in 10.0 mi South 15.0 mph - N/A   Clear
10:55 AM 68.0 °F 51.8 °F 56% 29.98 in 10.0 mi South 13.8 mph 21.9 mph N/A Rain Light Rain
11:15 AM 69.8 °F 51.8 °F 53% 29.97 in 10.0 mi South 19.6 mph 25.3 mph N/A   Clear
11:35 AM 69.8 °F 51.8 °F 53% 29.97 in 10.0 mi South 15.0 mph 25.3 mph N/A Rain Light Rain
11:55 AM 71.6 °F 51.8 °F 50% 29.96 in 10.0 mi South 13.8 mph 25.3 mph N/A   Light Drizzle
12:15 PM 71.6 °F 51.8 °F 50% 29.96 in 10.0 mi SSE 15.0 mph 24.2 mph N/A   Clear
12:35 PM 71.6 °F 51.8 °F 50% 29.95 in 10.0 mi South 13.8 mph 21.9 mph N/A Rain Light Rain
1:15 PM 73.4 °F 51.8 °F 47% 29.93 in 10.0 mi South 16.1 mph 26.5 mph N/A Rain Light Rain
1:35 PM 73.4 °F 51.8 °F 47% 29.93 in 10.0 mi South 15.0 mph 23.0 mph N/A   Light Drizzle
1:55 PM 73.4 °F 51.8 °F 47% 29.92 in 10.0 mi SSE 13.8 mph 21.9 mph N/A   Clear
2:15 PM 75.2 °F 50.0 °F 41% 29.91 in 10.0 mi SSE 16.1 mph 23.0 mph N/A Rain Light Rain
2:35 PM 75.2 °F 50.0 °F 41% 29.90 in 10.0 mi SE 15.0 mph 23.0 mph N/A Rain Light Rain
2:55 PM 75.2 °F 50.0 °F 41% 29.90 in 10.0 mi SE 17.3 mph - N/A   Clear
3:15 PM 75.2 °F 50.0 °F 41% 29.89 in 10.0 mi SSE 11.5 mph 23.0 mph N/A   Light Drizzle
3:35 PM 75.2 °F 50.0 °F 41% 29.89 in 10.0 mi SSE 15.0 mph 23.0 mph N/A   Clear
3:55 PM 75.2 °F 50.0 °F 41% 29.88 in 10.0 mi SE 12.7 mph 21.9 mph N/A   Clear
4:15 PM 75.2 °F 50.0 °F 41% 29.88 in 10.0 mi SE 16.1 mph 23.0 mph N/A   Clear
4:35 PM 75.2 °F 50.0 °F 41% 29.88 in 10.0 mi SE 16.1 mph - N/A   Clear
4:55 PM 75.2 °F 50.0 °F 41% 29.87 in 10.0 mi SE 17.3 mph - N/A   Clear
5:15 PM 75.2 °F 48.2 °F 38% 29.87 in 10.0 mi SE 16.1 mph 23.0 mph N/A   Clear
5:35 PM 73.4 °F 48.2 °F 41% 29.86 in 10.0 mi SE 16.1 mph 25.3 mph N/A   Clear
5:55 PM 73.4 °F 48.2 °F 41% 29.86 in 10.0 mi SE 17.3 mph - N/A   Clear
6:15 PM 71.6 °F 50.0 °F 46% 29.86 in 10.0 mi SE 13.8 mph 19.6 mph N/A   Clear
6:35 PM 71.6 °F 50.0 °F 46% 29.86 in 10.0 mi SE 11.5 mph 18.4 mph N/A   Clear
6:55 PM 69.8 °F 48.2 °F 46% 29.86 in 10.0 mi SE 11.5 mph - N/A   Clear
7:15 PM 68.0 °F 48.2 °F 49% 29.86 in 10.0 mi SE 10.4 mph - N/A   Clear
7:35 PM 66.2 °F 50.0 °F 56% 29.85 in 10.0 mi ESE 8.1 mph - N/A   Clear
7:55 PM 64.4 °F 51.8 °F 64% 29.86 in 10.0 mi ESE 10.4 mph - N/A   Clear
8:15 PM 64.4 °F 51.8 °F 64% 29.87 in 10.0 mi SE 11.5 mph - N/A   Clear
8:35 PM 64.4 °F 50.0 °F 59% 29.88 in 10.0 mi SE 11.5 mph - N/A   Clear
8:55 PM 64.4 °F 50.0 °F 59% 29.87 in 10.0 mi ESE 13.8 mph 23.0 mph N/A   Clear
9:15 PM 64.4 °F 50.0 °F 59% 29.87 in 10.0 mi SE 12.7 mph 18.4 mph N/A   Clear
9:35 PM 64.4 °F 50.0 °F 59% 29.88 in 10.0 mi SE 12.7 mph - N/A   Clear
9:55 PM 62.6 °F 50.0 °F 63% 29.89 in 10.0 mi SE 10.4 mph 19.6 mph N/A   Clear
10:15 PM 62.6 °F 51.8 °F 68% 29.90 in 10.0 mi SE 10.4 mph 16.1 mph N/A   Clear
10:35 PM 60.8 °F 51.8 °F 72% 29.91 in 10.0 mi SSE 9.2 mph - N/A   Clear
10:55 PM 60.8 °F 51.8 °F 72% 29.91 in 10.0 mi SE 8.1 mph - N/A   Clear
11:15 PM 59.0 °F 51.8 °F 77% 29.91 in 10.0 mi SE 8.1 mph - N/A   Clear
11:35 PM 59.0 °F 51.8 °F 77% 29.90 in 10.0 mi SE 6.9 mph - N/A   Clear
11:55 PM 57.2 °F 51.8 °F 82% 29.90 in 10.0 mi SE 8.1 mph - N/A   Clear